Regional Weather Roundup
Issued by NWS

Home | Current Version | Previous Version | Text Only | Print | Product List | Glossary Off
Versions: 1 2 3 4 5 6 7 8 9 10 11 12 13 14 15 16 17 18 19 20 21 22 23 24 25 26 27 28 29 30 31 32 33 34 35 36 37 38 39 40 41 42 43 44 45 46 47 48 49 50

000
ASUS45 KTFX 221419
RWRMT
MONTANA HOURLY WEATHER ROUNDUP
NATIONAL WEATHER SERVICE GREAT FALLS MT
819 AM MDT TUE APR 22 2014

NOTE: "FAIR" INDICATES FEW OR NO CLOUDS BELOW 12000 FEET WITH NO
SIGNIFICANT WEATHER AND/OR OBSTRUCTIONS TO VISIBILITY.

* THESE STATIONS ARE NOT UNDER NWS QUALITY CONTROL. THEY DO NOT
   REPORT WEATHER SUCH AS PRECIPITATION OR FOG.

MTZ001>007-043-221500-
WEST OF THE DIVIDE
CITY           SKY/WX    TMP DP  RH WIND       PRES   REMARKS
KALISPELL      PTCLDY    43  32  65 N5        29.64F
MISSOULA       CLOUDY    46  30  54 SE3       29.66F
BUTTE          PTSUNNY   39  27  62 S3        29.76S
MULLAN PASS    CLOUDY    37  28  70 VRB5      29.69R WCI  33
* ESSEX        N/A       37  27  67 S16G21     N/A   WCI  28
* LINCOLN      N/A       28  25  89 W1         N/A
* LOOKOUT PASS N/A       43  30  60 VRB4G11    N/A
* POLSON       N/A       40  30  68 N1         N/A
* SEELEY LAKE  N/A       32  27  82 N2         N/A
* THOMP F APT  PTSUNNY   43  38  83 E10G23     N/A
$$

MTZ008-052>055-221500-
SOUTHWEST MONTANA
CITY           SKY/WX    TMP DP  RH WIND       PRES   REMARKS
BOZEMAN        PTSUNNY   52  34  50 SE9       29.74F
DILLON         PTSUNNY   55  34  45 S13       29.73F
W YELLOWSTONE  N/A       39  35  86 N/A        N/A
* THREE FORKS  PTCLDY    55  37  51 SE7        N/A
* BOULDER HILL N/A       42  21  43 S8         N/A
* MONIDA PASS  N/A       42  38  86 SE15       N/A
* RAYNOLDS PAS N/A       42  23  47 SE19G24    N/A
* WHITEHALL    N/A       40  24  53 N4         N/A
* WISE RIVER   N/A       31  26  82 SW2        N/A
$$

MTZ009>010-012-014-046-048-049-054-221500-
EAST SLOPES AND CENTRAL MONTANA
CITY           SKY/WX    TMP DP  RH WIND       PRES   REMARKS
CUT BANK       PTSUNNY   37  28  70 CALM      29.69F
GREAT FALLS    PTSUNNY   46  28  50 CALM      29.69F
HELENA         CLOUDY    45  27  49 CALM      29.71F
MALMSTROM AFB  PTSUNNY   46  30  54 CALM      29.67F
* CONRAD       CLOUDY    36  28  73 N/A        N/A
* DEARBORN     N/A       39  28  65 N/A        N/A
* EAST GLACIER N/A       35  26  70 VRB2G9     N/A
* MONARCH      N/A       42  19  40 S10        N/A
* PENDROY      N/A       45  28  51 W3         N/A
* ROGERS PASS  N/A       42  28  58 N/A        N/A
* SAINT MARY   N/A       28  24  85 SE2        N/A
* SWEET GRASS  N/A       45  23  42 S12        N/A
* WHITE SULPH  N/A       45  23  42 NE6G11     N/A
$$

MTZ011-013-016-021-035-040-045-047-050-051-221500-
NORTH CENTRAL MONTANA
CITY           SKY/WX    TMP DP  RH WIND       PRES   REMARKS
HAVRE          CLOUDY    46  28  50 E13       29.69F
LEWISTOWN      CLOUDY    50  28  43 SE5       29.74F
* CHINOOK      CLOUDY    46  27  48 E14G20    29.72F
* FORT BENTON  PTSUNNY   46  30  54 CALM      29.71F
* CHESTER      N/A       40  24  53 SW2        N/A
* DENTON       N/A       56  30  37 S14        N/A
* GEYSER       N/A       46  32  58 S4         N/A
* JUDITH GAP   N/A       42  28  58 S7         N/A
* LOMA         N/A       48  27  44 E7         N/A
$$

MTZ017>020-022>027-061-062-221500-
NORTHEAST MONTANA
CITY           SKY/WX    TMP DP  RH WIND       PRES   REMARKS
GLASGOW        PTCLDY    50  30  46 E20       29.81F
JORDAN         CLOUDY    50  28  43 E6        29.78F
SIDNEY         PTSUNNY   55  30  39 SE12      29.91F
WOLF POINT     PTSUNNY   48  34  59 E16       29.86F
* BEAVER HILL  N/A       44  30  58 E23G30     N/A
* CIRCLE       N/A       49  32  52 E4G13      N/A
* LINDSAY DVD  N/A       42  32  68 E13        N/A
* NAVAJO       N/A       40  31  70 E6         N/A   WCI  36
* SACO         N/A       49  29  46 E19        N/A
$$

MTZ028>042-056>058-221500-
SOUTHCENTRAL AND SOUTHEAST MONTANA
CITY           SKY/WX    TMP DP  RH WIND       PRES   REMARKS
BAKER          CLOUDY    45  32  60 SE14      29.88F
BILLINGS       CLOUDY    48  32  54 NW5       29.77F
LIVINGSTON     CLOUDY    48  28  46 SE9       29.79S
MILES CITY     CLOUDY    48  34  59 NE7       29.80F
* LAUREL APT   CLOUDY    46  30  54 W7         N/A
* ROUNDUP APT  CLOUDY    45  28  51 N/A        N/A
* HYSHAM       N/A       52  30  43 SE1        N/A
* LAME DEER    N/A       51  33  50 S7         N/A
* REED POINT   N/A       43  34  71 W6         N/A
* ROSCOE HILL  N/A       52  18  26 E2         N/A
$$

REGIONAL REPORTS...DAKOTAS
CITY           SKY/WX    TMP DP  RH WIND       PRES   REMARKS
WILLISTON      PTCLDY    52  30  43 SE7       29.95F
DICKINSON      CLOUDY    52  28  40 SE17G24   29.93F
CROSBY         SUNNY     50  32  50 S10G20    29.97F
TIOGA          SUNNY     45  36  71 E7        30.01F
WATFORD CITY   SUNNY     50  30  46 SE16      29.92F
BISMARCK       SUNNY     41  34  76 E8        30.05F
GRAND FORKS    HAZE      43  37  79 SE7       30.13F
FARGO          PTCLDY    45  34  65 SE3       30.14R
BUFFALO SD     PTSUNNY   46  32  58 E8        29.82F
RAPID CITY     PTCLDY    46  34  63 SE9       29.88F
$$

REGIONAL REPORTS...WYOMING/IDAHO/WASHINGTON
CITY           SKY/WX    TMP DP  RH WIND       PRES   REMARKS
GILLETTE       CLOUDY    48  36  63 VRB3      29.86F
SHERIDAN       CLOUDY    46  39  77 N5        29.82S
CODY           CLOUDY    55  36  49 SW6       29.84R
YELLOWSTONE LA CLOUDY    34  32  92 CALM      29.99F
SALMON         PTSUNNY   43  28  56 S5        29.67F
MULLAN PASS    CLOUDY    37  28  70 VRB5      29.69S WCI  33
SAND POINT     RAIN      43  43 100 SW6       29.69R
SPOKANE        LGT RAIN  45  43  93 SW15      29.67R
$$

REGIONAL REPORTS...ALBERTA
CITY           SKY/WX    TMP DP  RH WIND       PRES   REMARKS
CALGARY        CLOUDY    39  28  65 NW6       29.68F WCI  35
LETHBRIDGE     CLOUDY    37  30  76 SW7       29.66F WCI  32
MEDICINE HAT   CLOUDY    54  30  40 N5        29.67F
EDMONTON       PTCLDY    43  28  56 E12       29.68F
WATERTON GATE  N/A       34  28  79 CALM       N/A
CARDSTON       N/A       34  30  85 E2         N/A
MILK RIVER     N/A       36  28  73 NW5        N/A   WCI  32
$$

REGIONAL REPORTS...SASKATCHEWAN
CITY           SKY/WX    TMP DP  RH WIND       PRES   REMARKS
SWIFT CURRENT  SUNNY     48  28  46 SE15      29.79F
MOOSE JAW      PTSUNNY   41  30  65 SE10      29.90F
REGINA         PTSUNNY   43  36  76 SE16      29.94F
VAL MARIE      N/A       48  28  46 E3         N/A
ASSINIBOIA     N/A       45  32  60 SE13       N/A
CORONACH       N/A       43  32  65 E12        N/A

$$




USA.gov is the U.S. government's official web portal to all federal, state and local government web resources and services.